Time,TemperatureF,DewpointF,PressureIn,WindDirection,WindDirectionDegrees,WindSpeedMPH,WindSpeedGustMPH,Humidity,HourlyPrecipIn,Conditions,Clouds,dailyrainin,SoftwareType,DateUTC
2013-01-11 00:03:00,42.0,40.0,-100.00,ENE,75,1.0,1.0,93,0.00,,,-99.99,,2013-01-11 05:03:00,
2013-01-11 00:13:00,42.0,40.0,-100.00,South,175,1.0,3.0,94,0.00,,,-99.99,,2013-01-11 05:13:00,
2013-01-11 00:22:00,42.0,40.0,-100.00,SSE,165,0.0,1.0,94,0.00,,,-99.99,,2013-01-11 05:22:00,
2013-01-11 00:33:00,42.0,40.0,-100.00,SSW,200,0.0,0.0,94,0.00,,,-99.99,,2013-01-11 05:33:00,
2013-01-11 00:43:00,42.0,40.0,-100.00,NNW,345,0.0,1.0,94,0.00,,,-99.99,,2013-01-11 05:43:00,
2013-01-11 00:52:00,42.0,41.0,-100.00,South,180,0.0,2.0,94,0.00,,,-99.99,,2013-01-11 05:52:00,
2013-01-11 01:03:00,42.0,41.0,-100.00,North,10,0.0,1.0,93,0.00,,,-99.99,,2013-01-11 06:03:00,
2013-01-11 01:12:00,42.0,41.0,-100.00,ESE,110,0.0,0.0,93,0.00,,,-99.99,,2013-01-11 06:12:00,
2013-01-11 01:22:00,42.0,41.0,-100.00,NNW,330,0.0,0.0,94,0.00,,,-99.99,,2013-01-11 06:22:00,
2013-01-11 01:32:00,42.0,41.0,-100.00,South,175,0.0,1.0,94,0.00,,,-99.99,,2013-01-11 06:32:00,
2013-01-11 01:42:00,42.0,40.0,-100.00,North,0,0.0,1.0,94,0.00,,,-99.99,,2013-01-11 06:42:00,
2013-01-11 01:52:00,42.0,40.0,-100.00,North,0,0.0,1.0,94,0.00,,,-99.99,,2013-01-11 06:52:00,
2013-01-11 02:02:00,42.0,40.0,-100.00,NNW,345,0.0,1.0,94,0.00,,,-99.99,,2013-01-11 07:02:00,
2013-01-11 02:12:00,42.0,40.0,-100.00,WNW,300,0.0,1.0,94,0.00,,,-99.99,,2013-01-11 07:12:00,
2013-01-11 02:22:00,42.0,40.0,-100.00,NW,315,0.0,1.0,94,0.00,,,-99.99,,2013-01-11 07:22:00,
2013-01-11 02:32:00,42.0,40.0,-100.00,NW,310,0.0,2.0,94,0.00,,,-99.99,,2013-01-11 07:32:00,
2013-01-11 02:42:00,42.0,41.0,-100.00,WNW,295,1.0,3.0,94,0.00,,,-99.99,,2013-01-11 07:42:00,
2013-01-11 02:52:00,43.0,41.0,-100.00,NW,320,1.0,2.0,94,0.00,,,-99.99,,2013-01-11 07:52:00,
2013-01-11 03:02:00,43.0,41.0,-100.00,West,275,1.0,4.0,93,3.39,,,-99.99,,2013-01-11 08:02:00,
2013-01-11 03:12:00,43.0,41.0,-100.00,NW,315,1.0,2.0,92,0.00,,,-99.99,,2013-01-11 08:12:00,
2013-01-11 03:22:00,42.0,40.0,-100.00,NNW,330,1.0,5.0,93,0.00,,,-99.99,,2013-01-11 08:22:00,
2013-01-11 03:32:00,43.0,41.0,-100.00,North,355,1.0,3.0,93,1.10,,,-99.99,,2013-01-11 08:32:00,
2013-01-11 03:42:00,43.0,41.0,-100.00,NW,305,1.0,3.0,93,0.55,,,-99.99,,2013-01-11 08:42:00,
2013-01-11 03:52:00,44.0,43.0,-100.00,WNW,285,2.0,4.0,93,2.24,,,-99.99,,2013-01-11 08:52:00,
2013-01-11 04:02:00,46.0,44.0,-100.00,West,275,2.0,4.0,93,0.00,,,-99.99,,2013-01-11 09:02:00,
2013-01-11 04:12:00,47.0,45.0,-100.00,West,280,4.0,9.0,93,1.69,,,-99.99,,2013-01-11 09:12:00,
2013-01-11 04:23:00,47.0,45.0,-100.00,West,275,2.0,5.0,93,0.00,,,-99.99,,2013-01-11 09:23:00,
2013-01-11 04:32:00,48.0,46.0,-100.00,WNW,285,2.0,5.0,93,0.55,,,-99.99,,2013-01-11 09:32:00,
2013-01-11 04:42:00,47.0,46.0,-100.00,NW,315,2.0,4.0,93,0.00,,,-99.99,,2013-01-11 09:42:00,
2013-01-11 04:52:00,47.0,46.0,-100.00,WSW,255,3.0,5.0,93,0.00,,,-99.99,,2013-01-11 09:52:00,
2013-01-11 05:02:00,49.0,48.0,-100.00,West,260,6.0,9.0,94,1.10,,,-99.99,,2013-01-11 10:02:00,
2013-01-11 05:12:00,50.0,48.0,-100.00,West,270,7.0,9.0,92,0.00,,,-99.99,,2013-01-11 10:12:00,
2013-01-11 05:22:00,50.0,48.0,-100.00,West,260,5.0,9.0,92,0.00,,,-99.99,,2013-01-11 10:22:00,
2013-01-11 05:32:00,50.0,48.0,-100.00,West,265,7.0,9.0,92,0.00,,,-99.99,,2013-01-11 10:32:00,
2013-01-11 05:42:00,50.0,48.0,-100.00,West,265,7.0,11.0,92,0.00,,,-99.99,,2013-01-11 10:42:00,
2013-01-11 05:52:00,51.0,49.0,-100.00,West,265,7.0,12.0,91,0.00,,,-99.99,,2013-01-11 10:52:00,
2013-01-11 06:03:00,52.0,49.0,-100.00,West,265,7.0,12.0,89,0.00,,,-99.99,,2013-01-11 11:03:00,
2013-01-11 06:12:00,53.0,49.0,-100.00,WSW,240,6.0,13.0,89,0.00,,,-99.99,,2013-01-11 11:12:00,
2013-01-11 06:22:00,53.0,49.0,-100.00,WSW,255,9.0,12.0,88,0.00,,,-99.99,,2013-01-11 11:22:00,
2013-01-11 06:33:00,53.0,50.0,-100.00,West,260,7.0,11.0,87,0.00,,,-99.99,,2013-01-11 11:33:00,
2013-01-11 06:42:00,54.0,50.0,-100.00,West,275,8.0,12.0,87,0.55,,,-99.99,,2013-01-11 11:42:00,
2013-01-11 06:53:00,54.0,50.0,-100.00,West,265,9.0,12.0,87,6.22,,,-99.99,,2013-01-11 11:53:00,
2013-01-11 07:03:00,54.0,51.0,-100.00,West,270,10.0,17.0,89,8.50,,,-99.99,,2013-01-11 12:03:00,
2013-01-11 07:12:00,53.0,51.0,-100.00,West,265,7.0,14.0,91,4.53,,,-99.99,,2013-01-11 12:12:00,
2013-01-11 07:22:00,53.0,51.0,-100.00,West,270,9.0,16.0,92,2.83,,,-99.99,,2013-01-11 12:22:00,
2013-01-11 07:33:00,54.0,52.0,-100.00,West,275,9.0,15.0,92,1.10,,,-99.99,,2013-01-11 12:33:00,
2013-01-11 07:42:00,54.0,51.0,-100.00,SW,235,9.0,14.0,91,0.00,,,-99.99,,2013-01-11 12:42:00,
2013-01-11 07:52:00,55.0,51.0,-100.00,NW,320,6.0,16.0,88,0.00,,,-99.99,,2013-01-11 12:52:00,
2013-01-11 08:03:00,55.0,52.0,-100.00,WNW,295,9.0,14.0,91,0.55,,,-99.99,,2013-01-11 13:03:00,
2013-01-11 08:13:00,55.0,52.0,-100.00,West,270,8.0,13.0,89,0.00,,,-99.99,,2013-01-11 13:13:00,
2013-01-11 08:22:00,55.0,52.0,-100.00,West,270,10.0,16.0,88,0.00,,,-99.99,,2013-01-11 13:22:00,
2013-01-11 08:33:00,55.0,52.0,-100.00,West,260,7.0,17.0,89,3.39,,,-99.99,,2013-01-11 13:33:00,
2013-01-11 08:42:00,55.0,53.0,-100.00,West,270,7.0,12.0,92,2.24,,,-99.99,,2013-01-11 13:42:00,
2013-01-11 08:52:00,55.0,53.0,-100.00,WSW,245,7.0,11.0,93,1.69,,,-99.99,,2013-01-11 13:52:00,
2013-01-11 09:03:00,55.0,53.0,-100.00,WSW,240,6.0,11.0,94,0.00,,,-99.99,,2013-01-11 14:03:00,
2013-01-11 09:12:00,55.0,54.0,-100.00,WSW,255,6.0,12.0,94,0.00,,,-99.99,,2013-01-11 14:12:00,
2013-01-11 09:23:00,55.0,53.0,-100.00,WSW,255,6.0,11.0,94,1.10,,,-99.99,,2013-01-11 14:23:00,
2013-01-11 09:33:00,55.0,53.0,-100.00,West,270,6.0,9.0,93,0.00,,,-99.99,,2013-01-11 14:33:00,
2013-01-11 09:43:00,55.0,53.0,-100.00,West,265,6.0,11.0,93,0.00,,,-99.99,,2013-01-11 14:43:00,
2013-01-11 09:53:00,55.0,53.0,-100.00,West,270,6.0,11.0,92,0.00,,,-99.99,,2013-01-11 14:53:00,
2013-01-11 10:03:00,56.0,53.0,-100.00,West,265,7.0,9.0,92,0.00,,,-99.99,,2013-01-11 15:03:00,
2013-01-11 10:13:00,56.0,53.0,-100.00,West,260,5.0,8.0,91,0.00,,,-99.99,,2013-01-11 15:13:00,
2013-01-11 10:23:00,57.0,54.0,-100.00,West,275,7.0,10.0,90,0.00,,,-99.99,,2013-01-11 15:23:00,
2013-01-11 10:33:00,57.0,54.0,-100.00,WNW,285,6.0,10.0,88,0.00,,,-99.99,,2013-01-11 15:33:00,
2013-01-11 10:43:00,58.0,54.0,-100.00,West,275,3.0,8.0,88,0.00,,,-99.99,,2013-01-11 15:43:00,
2013-01-11 10:52:00,58.0,54.0,-100.00,West,265,3.0,8.0,87,0.00,,,-99.99,,2013-01-11 15:52:00,
2013-01-11 11:03:00,58.0,54.0,-100.00,North,5,2.0,8.0,86,0.00,,,-99.99,,2013-01-11 16:03:00,
2013-01-11 11:12:00,59.0,54.0,-100.00,NW,325,4.0,10.0,83,0.00,,,-99.99,,2013-01-11 16:12:00,
2013-01-11 11:22:00,60.0,54.0,-100.00,North,0,4.0,11.0,82,0.00,,,-99.99,,2013-01-11 16:22:00,
2013-01-11 11:33:00,59.0,53.0,-100.00,NNW,330,4.0,12.0,80,0.00,,,-99.99,,2013-01-11 16:33:00,
2013-01-11 11:42:00,59.0,52.0,-100.00,NNW,335,7.0,11.0,78,0.00,,,-99.99,,2013-01-11 16:42:00,
2013-01-11 11:52:00,59.0,52.0,-100.00,North,0,6.0,12.0,78,0.00,,,-99.99,,2013-01-11 16:52:00,
2013-01-11 12:03:00,59.0,52.0,-100.00,NNW,340,6.0,11.0,77,0.00,,,-99.99,,2013-01-11 17:03:00,
2013-01-11 12:12:00,60.0,52.0,-100.00,NNW,330,5.0,9.0,76,0.00,,,-99.99,,2013-01-11 17:12:00,
2013-01-11 12:22:00,60.0,52.0,-100.00,North,0,9.0,16.0,74,0.00,,,-99.99,,2013-01-11 17:22:00,
2013-01-11 12:33:00,61.0,52.0,-100.00,NNW,345,9.0,13.0,72,0.00,,,-99.99,,2013-01-11 17:33:00,
2013-01-11 12:43:00,61.0,52.0,-100.00,North,0,10.0,16.0,72,0.00,,,-99.99,,2013-01-11 17:43:00,
2013-01-11 12:53:00,60.0,51.0,-100.00,North,350,7.0,18.0,72,0.00,,,-99.99,,2013-01-11 17:53:00,
2013-01-11 13:04:00,60.0,51.0,-100.00,NNW,335,6.0,11.0,71,0.00,,,-99.99,,2013-01-11 18:04:00,
2013-01-11 13:13:00,60.0,51.0,-100.00,NNW,345,4.0,11.0,72,0.00,,,-99.99,,2013-01-11 18:13:00,
2013-01-11 13:23:00,60.0,50.0,-100.00,North,0,6.0,14.0,69,0.00,,,-99.99,,2013-01-11 18:23:00,
2013-01-11 13:33:00,60.0,51.0,-100.00,NNW,340,4.0,9.0,70,0.00,,,-99.99,,2013-01-11 18:33:00,
2013-01-11 13:43:00,62.0,51.0,-100.00,North,0,7.0,15.0,68,0.00,,,-99.99,,2013-01-11 18:43:00,
2013-01-11 13:53:00,62.0,51.0,-100.00,NNW,340,8.0,16.0,66,0.00,,,-99.99,,2013-01-11 18:53:00,
2013-01-11 14:03:00,62.0,50.0,-100.00,North,0,10.0,14.0,64,0.00,,,-99.99,,2013-01-11 19:03:00,
2013-01-11 14:12:00,62.0,50.0,-100.00,North,0,9.0,18.0,64,0.00,,,-99.99,,2013-01-11 19:12:00,
2013-01-11 14:22:00,63.0,50.0,-100.00,NNW,340,6.0,19.0,64,0.00,,,-99.99,,2013-01-11 19:22:00,
2013-01-11 14:33:00,62.0,49.0,-100.00,NNW,340,9.0,17.0,62,0.00,,,-99.99,,2013-01-11 19:33:00,
2013-01-11 14:43:00,63.0,50.0,-100.00,North,350,6.0,14.0,62,0.00,,,-99.99,,2013-01-11 19:43:00,
2013-01-11 14:53:00,63.0,49.0,-100.00,North,0,7.0,17.0,61,0.00,,,-99.99,,2013-01-11 19:53:00,
2013-01-11 15:03:00,63.0,50.0,-100.00,North,0,7.0,13.0,62,0.00,,,-99.99,,2013-01-11 20:03:00,
2013-01-11 15:12:00,62.0,50.0,-100.00,North,0,6.0,12.0,63,0.00,,,-99.99,,2013-01-11 20:12:00,
2013-01-11 15:22:00,63.0,50.0,-100.00,North,10,7.0,13.0,63,0.00,,,-99.99,,2013-01-11 20:22:00,
2013-01-11 15:33:00,64.0,49.0,-100.00,NNW,345,7.0,12.0,60,0.00,,,-99.99,,2013-01-11 20:33:00,
2013-01-11 15:43:00,63.0,49.0,-100.00,NW,325,9.0,16.0,60,0.00,,,-99.99,,2013-01-11 20:43:00,
2013-01-11 15:52:00,63.0,49.0,-100.00,NNW,335,9.0,16.0,60,0.00,,,-99.99,,2013-01-11 20:52:00,
2013-01-11 16:03:00,62.0,49.0,-100.00,NNW,340,4.0,9.0,61,0.00,,,-99.99,,2013-01-11 21:03:00,
2013-01-11 16:12:00,62.0,49.0,-100.00,NNW,340,4.0,11.0,62,0.00,,,-99.99,,2013-01-11 21:12:00,
2013-01-11 16:23:00,63.0,49.0,-100.00,North,0,4.0,7.0,61,0.00,,,-99.99,,2013-01-11 21:23:00,
2013-01-11 16:33:00,64.0,50.0,-100.00,North,0,2.0,6.0,60,0.00,,,-99.99,,2013-01-11 21:33:00,
2013-01-11 16:42:00,64.0,50.0,-100.00,NNW,345,5.0,7.0,60,0.00,,,-99.99,,2013-01-11 21:42:00,
2013-01-11 16:52:00,64.0,49.0,-100.00,North,0,4.0,7.0,60,0.00,,,-99.99,,2013-01-11 21:52:00,
2013-01-11 17:03:00,64.0,49.0,-100.00,NNW,340,4.0,7.0,60,0.00,,,-99.99,,2013-01-11 22:03:00,
2013-01-11 17:12:00,63.0,49.0,-100.00,NNW,340,4.0,7.0,60,0.00,,,-99.99,,2013-01-11 22:12:00,
2013-01-11 17:22:00,63.0,49.0,-100.00,North,0,4.0,7.0,60,0.00,,,-99.99,,2013-01-11 22:22:00,
2013-01-11 17:33:00,62.0,48.0,-100.00,NNW,345,4.0,7.0,60,0.00,,,-99.99,,2013-01-11 22:33:00,
2013-01-11 17:42:00,62.0,48.0,-100.00,North,0,3.0,6.0,61,0.00,,,-99.99,,2013-01-11 22:42:00,
2013-01-11 17:52:00,62.0,48.0,-100.00,NNW,335,3.0,6.0,60,0.00,,,-99.99,,2013-01-11 22:52:00,
2013-01-11 18:02:00,60.0,48.0,-100.00,NNW,340,2.0,6.0,63,0.00,,,-99.99,,2013-01-11 23:02:00,
2013-01-11 18:13:00,58.0,48.0,-100.00,North,0,2.0,4.0,69,0.00,,,-99.99,,2013-01-11 23:13:00,
2013-01-11 18:22:00,57.0,48.0,-100.00,North,355,1.0,5.0,72,0.00,,,-99.99,,2013-01-11 23:22:00,
2013-01-11 18:32:00,56.0,48.0,-100.00,NNW,340,2.0,4.0,74,0.00,,,-99.99,,2013-01-11 23:32:00,
2013-01-11 18:43:00,55.0,48.0,-100.00,NW,325,1.0,3.0,77,0.00,,,-99.99,,2013-01-11 23:43:00,
2013-01-11 18:53:00,54.0,48.0,-100.00,NW,325,1.0,5.0,81,0.00,,,-99.99,,2013-01-11 23:53:00,
2013-01-11 19:03:00,52.0,47.0,-100.00,North,0,2.0,3.0,84,0.00,,,-99.99,,2013-01-12 00:03:00,
2013-01-11 19:12:00,52.0,47.0,-100.00,NW,320,1.0,3.0,84,0.00,,,-99.99,,2013-01-12 00:12:00,
2013-01-11 19:23:00,51.0,47.0,-100.00,NW,310,1.0,3.0,86,0.00,,,-99.99,,2013-01-12 00:23:00,
2013-01-11 19:33:00,51.0,47.0,-100.00,WNW,290,2.0,3.0,87,0.00,,,-99.99,,2013-01-12 00:33:00,
2013-01-11 19:43:00,50.0,46.0,-100.00,WNW,295,3.0,4.0,88,0.00,,,-99.99,,2013-01-12 00:43:00,
2013-01-11 19:52:00,49.0,46.0,-100.00,NW,305,1.0,4.0,89,0.00,,,-99.99,,2013-01-12 00:52:00,
2013-01-11 20:02:00,48.0,45.0,-100.00,NW,325,1.0,3.0,90,0.00,,,-99.99,,2013-01-12 01:02:00,
2013-01-11 20:12:00,48.0,46.0,-100.00,West,275,1.0,3.0,91,0.00,,,-99.99,,2013-01-12 01:12:00,
2013-01-11 20:22:00,48.0,45.0,-100.00,WNW,300,2.0,3.0,91,0.00,,,-99.99,,2013-01-12 01:22:00,
2013-01-11 20:33:00,47.0,45.0,-100.00,NW,320,1.0,4.0,90,0.00,,,-99.99,,2013-01-12 01:33:00,
2013-01-11 20:43:00,47.0,44.0,-100.00,NNW,330,1.0,3.0,90,0.00,,,-99.99,,2013-01-12 01:43:00,
2013-01-11 20:52:00,47.0,44.0,-100.00,NNW,335,1.0,3.0,91,0.00,,,-99.99,,2013-01-12 01:52:00,
2013-01-11 21:02:00,46.0,44.0,-100.00,WNW,290,2.0,4.0,92,0.00,,,-99.99,,2013-01-12 02:02:00,
2013-01-11 21:12:00,47.0,45.0,-100.00,NW,310,2.0,3.0,92,0.00,,,-99.99,,2013-01-12 02:12:00,
2013-01-11 21:22:00,47.0,45.0,-100.00,NW,325,2.0,3.0,92,0.00,,,-99.99,,2013-01-12 02:22:00,
2013-01-11 21:33:00,47.0,45.0,-100.00,North,10,1.0,3.0,92,0.00,,,-99.99,,2013-01-12 02:33:00,
2013-01-11 21:43:00,46.0,44.0,-100.00,NW,325,1.0,3.0,91,0.00,,,-99.99,,2013-01-12 02:43:00,
2013-01-11 21:53:00,45.0,43.0,-100.00,NNW,340,1.0,4.0,92,0.00,,,-99.99,,2013-01-12 02:53:00,
2013-01-11 22:03:00,46.0,44.0,-100.00,NNW,330,1.0,3.0,92,0.00,,,-99.99,,2013-01-12 03:03:00,
2013-01-11 22:12:00,46.0,44.0,-100.00,NNW,335,1.0,2.0,93,0.00,,,-99.99,,2013-01-12 03:12:00,
2013-01-11 22:22:00,46.0,43.0,-100.00,NNW,345,1.0,3.0,92,0.00,,,-99.99,,2013-01-12 03:22:00,
2013-01-11 22:33:00,46.0,44.0,-100.00,North,0,1.0,3.0,93,0.00,,,-99.99,,2013-01-12 03:33:00,
2013-01-11 22:43:00,46.0,44.0,-100.00,NNW,335,1.0,3.0,93,0.00,,,-99.99,,2013-01-12 03:43:00,
2013-01-11 22:52:00,45.0,43.0,-100.00,NNW,335,1.0,3.0,93,0.00,,,-99.99,,2013-01-12 03:52:00,
2013-01-11 23:02:00,45.0,43.0,-100.00,WNW,290,2.0,3.0,93,0.00,,,-99.99,,2013-01-12 04:02:00,
2013-01-11 23:12:00,45.0,43.0,-100.00,WNW,290,2.0,4.0,93,0.00,,,-99.99,,2013-01-12 04:12:00,
2013-01-11 23:22:00,45.0,43.0,-100.00,NW,310,2.0,4.0,93,0.00,,,-99.99,,2013-01-12 04:22:00,
2013-01-11 23:32:00,45.0,44.0,-100.00,WNW,285,3.0,4.0,93,0.00,,,-99.99,,2013-01-12 04:32:00,
2013-01-11 23:42:00,45.0,43.0,-100.00,WNW,300,2.0,3.0,93,0.00,,,-99.99,,2013-01-12 04:42:00,
2013-01-11 23:52:00,45.0,43.0,-100.00,WNW,290,2.0,4.0,93,0.00,,,-99.99,,2013-01-12 04:52:00,